BAW73NA EGLL-LSZH

Flight info

Callsign BAW73NA
Flight time 1h 43m
Altitude 29000
Route DET L6 DVR UL9 KONAN DCT KOK DCT SISGA DCT RITAX DCT KRH M150 LAMGO/N0397F270 T721 SUL/N0385F250 T721 RILAX
Aircraft A20N/M-SDGHIJ1LRWXY/SB1

Departure

Time 2026-04-25 20:45
Airport London Heathrow Airport (EGLL)

Arrival

Time 2026-04-25 22:28
Airport Zürich Airport (LSZH)
Time Latitude Longitude Altitude Speed Heading
2026-04-25 20:10 51.47088 -0.48578 85 ft 0 kts 270°
2026-04-25 20:32 51.47088 -0.48576 84 ft 2 kts 270°
2026-04-25 20:32 51.47089 -0.48536 77 ft 4 kts 260°
2026-04-25 20:32 51.47097 -0.48495 88 ft 4 kts 234°
2026-04-25 20:33 51.47113 -0.48476 86 ft 1 kts 178°
2026-04-25 20:33 51.47118 -0.48476 85 ft 0 kts 178°
2026-04-25 20:36 51.47117 -0.48475 86 ft 0 kts 166°
2026-04-25 20:36 51.47113 -0.48475 86 ft 2 kts 173°
2026-04-25 20:37 51.47081 -0.48472 88 ft 6 kts 178°
2026-04-25 20:37 51.47037 -0.48472 87 ft 6 kts 181°
2026-04-25 20:37 51.46984 -0.48479 86 ft 9 kts 179°
2026-04-25 20:37 51.46910 -0.48472 86 ft 12 kts 176°
2026-04-25 20:38 51.46844 -0.48472 88 ft 10 kts 180°
2026-04-25 20:38 51.46765 -0.48469 84 ft 12 kts 179°
2026-04-25 20:38 51.46674 -0.48469 86 ft 14 kts 180°
2026-04-25 20:38 51.46617 -0.48469 88 ft 0 kts 181°
2026-04-25 20:42 51.46588 -0.48469 89 ft 8 kts 179°
2026-04-25 20:42 51.46515 -0.48467 87 ft 13 kts 172°
2026-04-25 20:42 51.46479 -0.48394 87 ft 1 kts 89°
2026-04-25 20:44 51.46479 -0.48334 87 ft 15 kts 90°
2026-04-25 20:44 51.46478 -0.47789 83 ft 84 kts 89°
2026-04-25 20:44 51.46485 -0.46531 90 ft 138 kts 89°
2026-04-25 20:44 51.46498 -0.44879 504 ft 145 kts 91°
2026-04-25 20:45 51.46478 -0.43206 1039 ft 155 kts 91°
2026-04-25 20:45 51.46441 -0.41477 1682 ft 154 kts 103°
2026-04-25 20:45 51.46024 -0.39853 2192 ft 166 kts 120°
2026-04-25 20:45 51.45367 -0.38206 2608 ft 186 kts 123°
2026-04-25 20:46 51.44666 -0.36329 3074 ft 206 kts 111°
2026-04-25 20:46 51.44151 -0.34069 3569 ft 231 kts 109°
2026-04-25 20:46 51.43601 -0.31472 4236 ft 254 kts 108°
2026-04-25 20:46 51.43040 -0.28710 5098 ft 265 kts 106°
2026-04-25 20:47 51.42608 -0.25847 5683 ft 270 kts 101°
2026-04-25 20:47 51.42207 -0.22856 5926 ft 272 kts 101°
2026-04-25 20:47 51.41807 -0.19881 6014 ft 273 kts 101°
2026-04-25 20:47 51.41411 -0.16956 6024 ft 273 kts 101°
2026-04-25 20:48 51.41004 -0.13989 6023 ft 272 kts 101°
2026-04-25 20:48 51.40591 -0.11030 6023 ft 272 kts 102°
2026-04-25 20:48 51.40174 -0.08078 6026 ft 272 kts 102°
2026-04-25 20:48 51.39755 -0.05119 6028 ft 272 kts 102°
2026-04-25 20:49 51.39337 -0.02165 6027 ft 272 kts 102°
2026-04-25 20:49 51.38947 0.00588 6028 ft 272 kts 102°
2026-04-25 20:49 51.38550 0.03381 6041 ft 274 kts 102°
2026-04-25 20:49 51.38126 0.06367 6435 ft 276 kts 102°
2026-04-25 20:50 51.37698 0.09378 7422 ft 277 kts 102°
2026-04-25 20:50 51.37264 0.12399 8476 ft 281 kts 102°
2026-04-25 20:50 51.36817 0.15489 9443 ft 288 kts 102°
2026-04-25 20:50 51.36358 0.18635 10412 ft 294 kts 103°
2026-04-25 20:51 51.35879 0.21930 10966 ft 315 kts 102°
2026-04-25 20:51 51.35376 0.25475 11357 ft 338 kts 102°
2026-04-25 20:51 51.34844 0.29216 12037 ft 349 kts 102°
2026-04-25 20:51 51.34298 0.33022 12959 ft 354 kts 102°
2026-04-25 20:52 51.33738 0.36895 13829 ft 360 kts 102°
2026-04-25 20:52 51.33361 0.39493 14370 ft 364 kts 102°
2026-04-25 20:52 51.32589 0.44802 15421 ft 370 kts 102°
2026-04-25 20:52 51.32002 0.48825 16189 ft 375 kts 102°
2026-04-25 20:53 51.31404 0.52915 16937 ft 380 kts 102°
2026-04-25 20:53 51.30798 0.57048 17687 ft 385 kts 102°
2026-04-25 20:53 51.30140 0.61229 18121 ft 389 kts 105°
2026-04-25 20:53 51.29378 0.65383 18242 ft 390 kts 105°
2026-04-25 20:54 51.28616 0.69539 18271 ft 390 kts 105°
2026-04-25 20:54 51.27856 0.73683 18266 ft 389 kts 105°
2026-04-25 20:54 51.27094 0.77834 18260 ft 389 kts 105°
2026-04-25 20:54 51.26333 0.81975 18256 ft 389 kts 105°
2026-04-25 20:55 51.25575 0.86089 18253 ft 389 kts 105°
2026-04-25 20:55 51.24804 0.90267 18240 ft 389 kts 105°
2026-04-25 20:55 51.24039 0.94400 18240 ft 389 kts 105°
2026-04-25 20:55 51.23271 0.98538 18240 ft 389 kts 105°
2026-04-25 20:56 51.22503 1.02669 18244 ft 389 kts 105°
2026-04-25 20:56 51.21743 1.06750 18242 ft 389 kts 106°
2026-04-25 20:56 51.20971 1.10881 18244 ft 389 kts 106°
2026-04-25 20:56 51.20199 1.15009 18245 ft 389 kts 106°
2026-04-25 20:57 51.19414 1.19194 18275 ft 390 kts 106°
2026-04-25 20:57 51.18630 1.23363 18782 ft 394 kts 106°
2026-04-25 20:57 51.17840 1.27560 19521 ft 396 kts 106°
2026-04-25 20:57 51.17052 1.31734 20143 ft 401 kts 106°
2026-04-25 20:58 51.16351 1.36060 20768 ft 405 kts 99°
2026-04-25 20:58 51.16022 1.40532 21404 ft 408 kts 92°
2026-04-25 20:58 51.15821 1.45063 22009 ft 413 kts 92°
2026-04-25 20:58 51.15608 1.49659 22634 ft 418 kts 93°
2026-04-25 20:59 51.15387 1.54303 23247 ft 423 kts 93°
2026-04-25 20:59 51.15159 1.58990 23827 ft 427 kts 93°
2026-04-25 20:59 51.14927 1.63725 24364 ft 431 kts 93°
2026-04-25 20:59 51.14690 1.68496 24926 ft 433 kts 93°
2026-04-25 21:00 51.14451 1.73292 25437 ft 436 kts 93°
2026-04-25 21:00 51.14369 1.74918 25613 ft 437 kts 94°
2026-04-25 21:00 51.13709 1.87876 26947 ft 445 kts 94°
2026-04-25 21:01 51.13455 1.92805 27438 ft 448 kts 94°
2026-04-25 21:01 51.13197 1.97757 27893 ft 451 kts 94°
2026-04-25 21:01 51.12935 2.02748 28349 ft 454 kts 94°
2026-04-25 21:01 51.12698 2.07218 28745 ft 456 kts 94°
2026-04-25 21:02 51.12428 2.12273 29120 ft 459 kts 95°
2026-04-25 21:02 51.12156 2.17341 29237 ft 460 kts 95°
2026-04-25 21:02 51.11880 2.22412 29238 ft 460 kts 95°
2026-04-25 21:03 51.11324 2.32544 29240 ft 459 kts 95°
2026-04-25 21:03 51.10759 2.42668 29239 ft 459 kts 95°
2026-04-25 21:04 51.10283 2.51083 29240 ft 459 kts 95°
2026-04-25 21:04 51.09606 2.61187 29235 ft 460 kts 101°
2026-04-25 21:05 51.07131 2.72284 29238 ft 459 kts 118°
2026-04-25 21:05 51.04620 2.79795 29243 ft 459 kts 118°
2026-04-25 21:06 51.01643 2.88761 29237 ft 459 kts 118°
2026-04-25 21:06 50.98661 2.97708 29234 ft 458 kts 118°
2026-04-25 21:07 50.95672 3.06639 29231 ft 458 kts 118°
2026-04-25 21:07 50.92678 3.15548 29230 ft 458 kts 118°
2026-04-25 21:08 50.89676 3.24449 29225 ft 458 kts 118°
2026-04-25 21:08 50.86665 3.33348 29220 ft 458 kts 119°
2026-04-25 21:09 50.82134 3.46676 29215 ft 459 kts 119°
2026-04-25 21:09 50.79105 3.55550 29221 ft 459 kts 119°
2026-04-25 21:10 50.76062 3.64431 29221 ft 460 kts 120°
2026-04-25 21:10 50.73011 3.73306 29216 ft 461 kts 120°
2026-04-25 21:11 50.69944 3.82194 29218 ft 461 kts 120°
2026-04-25 21:11 50.66869 3.91075 29215 ft 462 kts 120°
2026-04-25 21:12 50.63804 3.99898 29220 ft 462 kts 120°
2026-04-25 21:12 50.61217 4.07347 29218 ft 463 kts 119°
2026-04-25 21:13 50.58023 4.18014 29225 ft 464 kts 116°
2026-04-25 21:13 50.55328 4.27245 29233 ft 465 kts 116°
2026-04-25 21:14 50.52579 4.36438 29240 ft 465 kts 117°
2026-04-25 21:14 50.49806 4.45617 29238 ft 465 kts 117°
2026-04-25 21:15 50.47023 4.54793 29238 ft 465 kts 117°
2026-04-25 21:15 50.44234 4.63957 29234 ft 465 kts 117°
2026-04-25 21:16 50.41439 4.73106 29230 ft 465 kts 117°
2026-04-25 21:16 50.38634 4.82253 29219 ft 465 kts 117°
2026-04-25 21:17 50.35824 4.91384 29213 ft 465 kts 117°
2026-04-25 21:17 50.33003 5.00513 29206 ft 466 kts 117°
2026-04-25 21:18 50.30176 5.09632 29205 ft 466 kts 117°
2026-04-25 21:18 50.27340 5.18744 29205 ft 466 kts 117°
2026-04-25 21:19 50.24497 5.27843 29206 ft 466 kts 117°
2026-04-25 21:19 50.21642 5.36951 29204 ft 467 kts 117°
2026-04-25 21:20 50.19266 5.44502 29201 ft 467 kts 117°
2026-04-25 21:20 50.15926 5.55076 29202 ft 467 kts 117°
2026-04-25 21:21 50.13026 5.64225 29202 ft 468 kts 116°
2026-04-25 21:21 50.10156 5.73257 29199 ft 468 kts 117°
2026-04-25 21:22 50.07164 5.82331 29203 ft 468 kts 122°
2026-04-25 21:22 50.03885 5.91098 29197 ft 468 kts 121°
2026-04-25 21:23 50.00633 5.99873 29195 ft 469 kts 121°
2026-04-25 21:23 49.97357 6.08664 29190 ft 470 kts 121°
2026-04-25 21:24 49.94069 6.17439 29180 ft 471 kts 121°
2026-04-25 21:24 49.90769 6.26214 29175 ft 471 kts 121°
2026-04-25 21:25 49.87463 6.34973 29172 ft 471 kts 121°
2026-04-25 21:25 49.84138 6.43755 29181 ft 472 kts 121°
2026-04-25 21:26 49.80833 6.52453 29166 ft 472 kts 121°
2026-04-25 21:26 49.77492 6.61218 29170 ft 473 kts 121°
2026-04-25 21:27 49.74143 6.69973 29182 ft 473 kts 121°
2026-04-25 21:27 49.70787 6.78717 29167 ft 473 kts 121°
2026-04-25 21:28 49.67422 6.87454 29157 ft 474 kts 121°
2026-04-25 21:28 49.64051 6.96180 29157 ft 474 kts 121°
2026-04-25 21:29 49.60668 7.04906 29174 ft 474 kts 121°
2026-04-25 21:29 49.57277 7.13625 29163 ft 474 kts 121°
2026-04-25 21:30 49.53878 7.22335 29182 ft 474 kts 121°
2026-04-25 21:30 49.51049 7.29563 29172 ft 474 kts 121°
2026-04-25 21:31 49.47061 7.39716 29159 ft 474 kts 121°
2026-04-25 21:31 49.43642 7.48392 29166 ft 475 kts 121°
2026-04-25 21:32 49.40214 7.57059 29159 ft 475 kts 121°
2026-04-25 21:32 49.36781 7.65713 29177 ft 475 kts 121°
2026-04-25 21:33 49.33364 7.74301 29159 ft 475 kts 121°
2026-04-25 21:33 49.29938 7.82878 29151 ft 475 kts 121°
2026-04-25 21:34 49.26459 7.91560 29150 ft 475 kts 121°
2026-04-25 21:34 49.23019 8.00122 29149 ft 475 kts 121°
2026-04-25 21:35 49.19530 8.08775 29145 ft 475 kts 121°
2026-04-25 21:35 49.16078 8.17307 29143 ft 475 kts 121°
2026-04-25 21:36 49.12602 8.25871 29141 ft 475 kts 121°
2026-04-25 21:36 49.09114 8.34437 29144 ft 475 kts 121°
2026-04-25 21:37 49.06211 8.41547 29141 ft 475 kts 121°
2026-04-25 21:37 49.02157 8.51555 29144 ft 475 kts 121°
2026-04-25 21:38 48.98491 8.59912 29141 ft 475 kts 128°
2026-04-25 21:38 48.94232 8.67620 29145 ft 475 kts 129°
2026-04-25 21:39 48.89287 8.74186 29146 ft 475 kts 152°
2026-04-25 21:39 48.86273 8.76171 29146 ft 472 kts 165°
2026-04-25 21:39 48.83065 8.77151 29146 ft 469 kts 178°
2026-04-25 21:40 48.79827 8.77087 29153 ft 464 kts 191°
2026-04-25 21:40 48.76693 8.76058 29147 ft 460 kts 199°
2026-04-25 21:40 48.70532 8.73426 29140 ft 460 kts 197°
2026-04-25 21:41 48.64256 8.71405 29143 ft 462 kts 194°
2026-04-25 21:41 48.57927 8.69692 29154 ft 462 kts 193°
2026-04-25 21:42 48.51596 8.68025 29141 ft 462 kts 193°
2026-04-25 21:42 48.45297 8.66364 28647 ft 457 kts 193°
2026-04-25 21:43 48.42177 8.65540 28042 ft 454 kts 193°
2026-04-25 21:43 48.39080 8.64723 27399 ft 450 kts 193°
2026-04-25 21:43 48.36006 8.63889 26750 ft 447 kts 193°
2026-04-25 21:43 48.32968 8.62983 26101 ft 443 kts 195°
2026-04-25 21:44 48.29968 8.62052 25480 ft 440 kts 195°
2026-04-25 21:44 48.26975 8.61125 24873 ft 437 kts 194°
2026-04-25 21:44 48.21061 8.59322 23699 ft 431 kts 194°
2026-04-25 21:45 48.18137 8.58440 23073 ft 426 kts 194°
2026-04-25 21:45 48.17195 8.58158 22881 ft 425 kts 194°
2026-04-25 21:45 48.12390 8.56721 21900 ft 416 kts 194°
2026-04-25 21:45 48.09564 8.55880 21322 ft 412 kts 193°
2026-04-25 21:46 48.06804 8.55060 20766 ft 408 kts 193°
2026-04-25 21:46 48.04042 8.54239 20210 ft 404 kts 193°
2026-04-25 21:46 48.01296 8.53424 19658 ft 399 kts 193°
2026-04-25 21:46 47.98593 8.52622 18924 ft 393 kts 193°
2026-04-25 21:47 47.95902 8.52286 18438 ft 388 kts 176°
2026-04-25 21:47 47.93257 8.53214 18230 ft 395 kts 157°
2026-04-25 21:47 47.90901 8.55295 18176 ft 394 kts 142°
2026-04-25 21:47 47.88761 8.57854 18171 ft 394 kts 140°
2026-04-25 21:48 47.86660 8.60485 18180 ft 396 kts 139°
2026-04-25 21:48 47.84553 8.63122 18170 ft 394 kts 139°
2026-04-25 21:48 47.82449 8.65724 18170 ft 394 kts 140°
2026-04-25 21:48 47.80340 8.68306 18026 ft 392 kts 140°
2026-04-25 21:49 47.78235 8.70865 17637 ft 389 kts 140°
2026-04-25 21:49 47.76157 8.73381 17114 ft 386 kts 140°
2026-04-25 21:49 47.74072 8.75903 16528 ft 383 kts 140°
2026-04-25 21:49 47.72012 8.78390 15955 ft 380 kts 140°
2026-04-25 21:50 47.69972 8.80851 15410 ft 377 kts 140°
2026-04-25 21:50 47.68627 8.82473 15052 ft 375 kts 140°
2026-04-25 21:50 47.66612 8.84901 14520 ft 372 kts 140°
2026-04-25 21:50 47.64613 8.87307 13995 ft 369 kts 140°
2026-04-25 21:51 47.62741 8.89872 13366 ft 363 kts 131°
2026-04-25 21:51 47.61227 8.92819 12559 ft 357 kts 121°
2026-04-25 21:51 47.60039 8.96032 11748 ft 353 kts 120°
2026-04-25 21:51 47.58446 8.98749 10955 ft 349 kts 142°
2026-04-25 21:52 47.56331 9.00382 10321 ft 339 kts 166°
2026-04-25 21:52 47.54076 9.00645 10107 ft 315 kts 189°
2026-04-25 21:52 47.52099 8.99640 9882 ft 291 kts 214°
2026-04-25 21:52 47.50665 8.97647 9332 ft 281 kts 239°
2026-04-25 21:53 47.49986 8.94990 8693 ft 277 kts 265°
2026-04-25 21:53 47.50192 8.92201 8059 ft 274 kts 289°
2026-04-25 21:53 47.50644 8.89499 7484 ft 271 kts 270°
2026-04-25 21:53 47.50239 8.86793 7244 ft 274 kts 243°
2026-04-25 21:54 47.49024 8.84656 7166 ft 273 kts 216°
2026-04-25 21:54 47.47372 8.83237 7158 ft 275 kts 209°
2026-04-25 21:54 47.45924 8.81429 7158 ft 274 kts 235°
2026-04-25 21:54 47.45195 8.78873 7161 ft 272 kts 262°
2026-04-25 21:55 47.45343 8.76112 7159 ft 272 kts 289°
2026-04-25 21:55 47.46342 8.73749 7161 ft 275 kts 316°
2026-04-25 21:55 47.47971 8.72320 7157 ft 277 kts 343°
2026-04-25 21:55 47.49867 8.71990 7155 ft 279 kts
2026-04-25 21:56 47.51701 8.72864 7156 ft 281 kts 31°
2026-04-25 21:56 47.52692 8.74101 7182 ft 283 kts 50°
2026-04-25 21:56 47.53708 8.77631 7183 ft 284 kts 86°
2026-04-25 21:56 47.53443 8.80444 7175 ft 283 kts 112°
2026-04-25 21:57 47.52542 8.83021 7162 ft 279 kts 122°
2026-04-25 21:57 47.51542 8.85430 7097 ft 270 kts 122°
2026-04-25 21:57 47.50599 8.87775 7005 ft 259 kts 121°
2026-04-25 21:57 47.49745 8.90058 6921 ft 248 kts 119°
2026-04-25 21:58 47.48965 8.92269 6814 ft 238 kts 118°
2026-04-25 21:58 47.48220 8.94426 6590 ft 234 kts 121°
2026-04-25 21:58 47.47114 8.96128 6270 ft 231 kts 152°
2026-04-25 21:58 47.45593 8.96667 6053 ft 225 kts 186°
2026-04-25 21:59 47.44127 8.95858 6011 ft 229 kts 219°
2026-04-25 21:59 47.43216 8.94043 6011 ft 215 kts 253°
2026-04-25 21:59 47.43066 8.91943 6018 ft 199 kts 276°
2026-04-25 22:00 47.43447 8.87985 5946 ft 196 kts 277°
2026-04-25 22:00 47.43597 8.86026 5692 ft 187 kts 276°
2026-04-25 22:00 47.43730 8.84152 5419 ft 180 kts 276°
2026-04-25 22:00 47.43858 8.82357 5161 ft 174 kts 276°
2026-04-25 22:01 47.43983 8.80599 4907 ft 169 kts 276°
2026-04-25 22:01 47.44104 8.78887 4659 ft 165 kts 276°
2026-04-25 22:01 47.44224 8.77210 4406 ft 162 kts 277°
2026-04-25 22:01 47.44301 8.76120 4260 ft 161 kts 277°
2026-04-25 22:02 47.44454 8.73980 3945 ft 153 kts 277°
2026-04-25 22:02 47.44563 8.72445 3737 ft 152 kts 278°
2026-04-25 22:02 47.44674 8.70889 3515 ft 151 kts 278°
2026-04-25 22:02 47.44784 8.69349 3302 ft 151 kts 278°
2026-04-25 22:03 47.44892 8.67820 3074 ft 149 kts 278°
2026-04-25 22:03 47.45000 8.66307 2852 ft 148 kts 278°
2026-04-25 22:03 47.45108 8.64801 2632 ft 146 kts 278°
2026-04-25 22:03 47.45214 8.63311 2411 ft 146 kts 277°
2026-04-25 22:04 47.45324 8.61776 2207 ft 174 kts 277°
2026-04-25 22:04 47.45465 8.59837 2665 ft 191 kts 277°
2026-04-25 22:04 47.45600 8.57893 3488 ft 195 kts 278°
2026-04-25 22:04 47.45752 8.55801 3979 ft 211 kts 277°
2026-04-25 22:05 47.45916 8.53558 4057 ft 225 kts 277°
2026-04-25 22:05 47.46071 8.51346 4028 ft 217 kts 277°
2026-04-25 22:05 47.46174 8.49081 4024 ft 218 kts 264°
2026-04-25 22:05 47.45693 8.46956 4027 ft 220 kts 242°
2026-04-25 22:06 47.44792 8.45198 4027 ft 220 kts 223°
2026-04-25 22:06 47.43541 8.43887 4032 ft 220 kts 207°
2026-04-25 22:06 47.42098 8.43005 4117 ft 224 kts 196°
2026-04-25 22:06 47.40610 8.42419 4797 ft 222 kts 193°
2026-04-25 22:07 47.39131 8.41912 5731 ft 217 kts 193°
2026-04-25 22:07 47.38134 8.41580 6260 ft 219 kts 193°
2026-04-25 22:07 47.36162 8.40810 6850 ft 223 kts 208°
2026-04-25 22:07 47.35024 8.39326 7005 ft 221 kts 239°
2026-04-25 22:08 47.34281 8.37338 7016 ft 221 kts 244°
2026-04-25 22:08 47.33589 8.35320 7018 ft 220 kts 244°
2026-04-25 22:08 47.32887 8.33309 7014 ft 221 kts 243°
2026-04-25 22:08 47.32162 8.31307 7014 ft 221 kts 242°
2026-04-25 22:09 47.31424 8.29318 7001 ft 221 kts 242°
2026-04-25 22:09 47.30677 8.27334 7000 ft 222 kts 242°
2026-04-25 22:09 47.29927 8.25349 7002 ft 222 kts 242°
2026-04-25 22:09 47.29175 8.23361 7000 ft 222 kts 242°
2026-04-25 22:10 47.28424 8.21374 6999 ft 222 kts 242°
2026-04-25 22:10 47.27673 8.19384 7001 ft 225 kts 242°
2026-04-25 22:10 47.26914 8.17370 7000 ft 223 kts 242°
2026-04-25 22:10 47.26165 8.15384 6998 ft 222 kts 242°
2026-04-25 22:11 47.25415 8.13391 6998 ft 223 kts 242°
2026-04-25 22:11 47.24702 8.11377 6993 ft 222 kts 253°
2026-04-25 22:11 47.24738 8.09162 7002 ft 222 kts 294°
2026-04-25 22:11 47.25753 8.07356 7009 ft 248 kts 321°
2026-04-25 22:12 47.27176 8.05845 7000 ft 253 kts 326°
2026-04-25 22:12 47.28659 8.04449 7001 ft 253 kts 328°
2026-04-25 22:12 47.30158 8.03075 7001 ft 253 kts 328°
2026-04-25 22:12 47.31151 8.02169 7000 ft 253 kts 328°
2026-04-25 22:13 47.33157 8.00340 7000 ft 253 kts 328°
2026-04-25 22:13 47.34724 7.99185 7001 ft 253 kts 346°
2026-04-25 22:13 47.36479 7.99136 7004 ft 255 kts 12°
2026-04-25 22:13 47.38074 8.00177 7005 ft 257 kts 38°
2026-04-25 22:14 47.39164 8.02285 7005 ft 259 kts 68°
2026-04-25 22:14 47.39418 8.04852 7011 ft 259 kts 96°
2026-04-25 22:14 47.39179 8.07484 7007 ft 259 kts 98°
2026-04-25 22:14 47.38922 8.10118 7010 ft 259 kts 98°
2026-04-25 22:15 47.38665 8.12745 7010 ft 259 kts 98°
2026-04-25 22:15 47.38406 8.15375 7015 ft 259 kts 98°
2026-04-25 22:15 47.38146 8.18006 7012 ft 259 kts 98°
2026-04-25 22:16 47.37625 8.23265 7019 ft 259 kts 98°
2026-04-25 22:16 47.37363 8.25898 7019 ft 259 kts 98°
2026-04-25 22:16 47.37102 8.28528 7016 ft 259 kts 98°
2026-04-25 22:16 47.36838 8.31164 7019 ft 260 kts 98°
2026-04-25 22:17 47.36574 8.33800 7021 ft 260 kts 98°
2026-04-25 22:17 47.36309 8.36433 7019 ft 260 kts 98°
2026-04-25 22:17 47.36045 8.39070 7020 ft 260 kts 98°
2026-04-25 22:17 47.35780 8.41704 7023 ft 260 kts 98°
2026-04-25 22:18 47.35515 8.44340 7022 ft 260 kts 98°
2026-04-25 22:18 47.35251 8.46973 7022 ft 260 kts 98°
2026-04-25 22:18 47.34987 8.49607 7021 ft 260 kts 98°
2026-04-25 22:18 47.34724 8.52234 7026 ft 260 kts 98°
2026-04-25 22:19 47.34514 8.54888 7026 ft 260 kts 92°
2026-04-25 22:19 47.34527 8.57548 7028 ft 260 kts 88°
2026-04-25 22:19 47.34571 8.60213 7027 ft 260 kts 88°
2026-04-25 22:19 47.34616 8.62876 7025 ft 260 kts 88°
2026-04-25 22:20 47.34661 8.65540 7027 ft 260 kts 88°
2026-04-25 22:20 47.34707 8.68196 7025 ft 260 kts 88°
2026-04-25 22:20 47.34752 8.70850 7026 ft 255 kts 88°
2026-04-25 22:20 47.34798 8.73487 7029 ft 260 kts 88°
2026-04-25 22:21 47.34843 8.76160 7025 ft 260 kts 88°
2026-04-25 22:21 47.34889 8.78818 7018 ft 260 kts 88°
2026-04-25 22:21 47.34935 8.81489 7016 ft 259 kts 88°
2026-04-25 22:21 47.34981 8.84132 6848 ft 257 kts 88°
2026-04-25 22:22 47.35298 8.86702 6531 ft 256 kts 65°
2026-04-25 22:22 47.36381 8.88732 6169 ft 253 kts 35°
2026-04-25 22:22 47.37973 8.89731 6037 ft 253 kts 14°
2026-04-25 22:22 47.39679 8.90367 5987 ft 247 kts 13°
2026-04-25 22:23 47.41300 8.90957 5986 ft 232 kts 10°
2026-04-25 22:23 47.42815 8.90825 5987 ft 216 kts 337°
2026-04-25 22:23 47.44011 8.89485 5991 ft 220 kts 303°
2026-04-25 22:23 47.44702 8.87498 5950 ft 216 kts 293°
2026-04-25 22:24 47.45319 8.85469 5700 ft 217 kts 293°
2026-04-25 22:24 47.45940 8.83409 5278 ft 224 kts 293°
2026-04-25 22:24 47.46568 8.81294 5049 ft 222 kts 293°
2026-04-25 22:24 47.47060 8.79194 4995 ft 215 kts 274°
2026-04-25 22:25 47.46778 8.76981 5000 ft 219 kts 244°
2026-04-25 22:25 47.46122 8.74990 4840 ft 217 kts 240°
2026-04-25 22:25 47.45419 8.73005 4411 ft 209 kts 238°
2026-04-25 22:25 47.44844 8.71196 4234 ft 184 kts 251°
2026-04-25 22:26 47.44629 8.69404 3869 ft 174 kts 272°
2026-04-25 22:26 47.44798 8.67636 3252 ft 179 kts 281°
2026-04-25 22:26 47.45023 8.65840 2778 ft 172 kts 282°
2026-04-25 22:26 47.45140 8.64161 2445 ft 162 kts 271°
2026-04-25 22:27 47.45256 8.62534 2139 ft 153 kts 279°
2026-04-25 22:27 47.45386 8.61046 1941 ft 141 kts 275°
2026-04-25 22:27 47.45496 8.59583 1778 ft 143 kts 275°
2026-04-25 22:27 47.45589 8.58145 1580 ft 141 kts 275°
2026-04-25 22:28 47.45688 8.56710 1424 ft 137 kts 273°
2026-04-25 22:28 47.45768 8.55459 1395 ft 91 kts 277°
2026-04-25 22:28 47.45808 8.54937 1399 ft 33 kts 277°
2026-04-25 22:28 47.45836 8.54578 1405 ft 18 kts 275°
2026-04-25 22:29 47.45854 8.54366 1399 ft 30 kts 283°
2026-04-25 22:29 47.45970 8.54313 1403 ft 13 kts 75°
2026-04-25 22:29 47.45959 8.54371 1405 ft 8 kts 109°
2026-04-25 22:30 47.45940 8.54607 1399 ft 13 kts 94°
2026-04-25 22:30 47.45933 8.54744 1405 ft 15 kts 97°
2026-04-25 22:30 47.45917 8.54922 1394 ft 20 kts 96°
2026-04-25 22:30 47.45906 8.55064 1403 ft 21 kts 96°
2026-04-25 22:31 47.45886 8.55312 1397 ft 19 kts 99°
2026-04-25 22:31 47.45880 8.55475 1393 ft 12 kts 93°
2026-04-25 22:31 47.45908 8.55558 1399 ft 8 kts 26°
2026-04-25 22:31 47.45942 8.55557 1396 ft 1 kts 341°
2026-04-25 22:32 47.45957 8.55538 1401 ft 4 kts 311°
2026-04-25 22:32 47.45967 8.55477 1404 ft 8 kts 278°
2026-04-25 22:32 47.45976 8.55368 1395 ft 13 kts 276°
2026-04-25 22:32 47.45984 8.55265 1394 ft 9 kts 277°
2026-04-25 22:33 47.45986 8.55149 1393 ft 12 kts 277°
2026-04-25 22:33 47.46040 8.55073 1397 ft 9 kts 337°
2026-04-25 22:33 47.46105 8.55033 1398 ft 7 kts 336°
2026-04-25 22:33 47.46109 8.55032 1395 ft 0 kts 345°
2026-04-25 22:34 47.46112 8.55042 1395 ft 3 kts 60°
2026-04-25 22:34 47.46123 8.55071 1404 ft 4 kts 60°
2026-04-25 22:34 47.46135 8.55105 1398 ft 1 kts 64°
2026-04-25 22:34 47.46136 8.55108 1398 ft 2 kts 65°
2026-04-25 22:35 47.46138 8.55115 1404 ft 2 kts 65°
2026-04-25 22:35 47.46139 8.55117 1404 ft 0 kts 66°